Other Public Products
Issued by NWS Charleston, SC

Home | Current Version | Previous Version | Text Only | Print | Product List | Glossary On
Versions: 1 2 3 4 5 6 7 8 9 10 11 12 13 14 15 16 17 18 19 20 21 22 23 24 25 26 27 28 29 30 31 32 33 34 35 36 37 38 39 40 41 42 43 44 45 46 47 48 49 50
417
FPUS82 KCHS 270911
OPUCHS

TEST...KCHS/KSAV Gateway Observations...TEST
National Weather Service Charleston SC
400 AM EST MON FEB 27 2017

NOTE: "fair" indicates few or no clouds below 12,000 feet with no
significant weather and/or obstructions to visibility.

SCZ050-WAZ558-NCZ071-TXZ119-213-PAZ071-DCZ001-FLZ074-172-MI076-
NYZ176-178-MAZ016-IL014-TNZ027-NJZ106-GAZ044-MD014-271000-
...Gateway Observations for Charleston International...

CITY           SKY/WX    TMP DP  RH WIND       PRES   REMARKS
Chas Airport   CLEAR     43  40  89 CALM      30.31R
Seattle        CLOUDY    36  35  96 S3        29.76R
Charlotte      PTCLDY    41  20  43 SE5       30.29R
Dallas DFW     CLOUDY    60  57  89 SE6       29.90F
Dallas Love    CLOUDY    61  56  83 E6        29.92S
Philladelphia  CLEAR     33  23  66 CALM      30.37R
Wash National  CLEAR     39  28  64 CALM      30.36R
Baltimore      PTCLDY    29  23  78 CALM      30.35R
Miami          PTCLDY    74  67  78 E12       30.13F
Detroit        PTCLDY    33  23  66 S10       30.13R WCI  25
Newark         CLEAR     31  19  61 SW6       30.34R WCI  25
Laguardia      CLEAR     38  17  42 S10       30.32R WCI  31
J F K          CLEAR     33  24  69 SW10      30.35R WCI  25
Boston Logan   PTCLDY    30  19  63 SW9       30.26S WCI  22
Ft. Lauderdale PTCLDY    75  68  78 E14       30.13S
Chicago O`Hare PTCLDY    33  24  69 W3        30.09R
Chicago Midway PTCLDY    36  24  62 S3        30.11R
Houston Bush   CLOUDY    69  66  90 SE3       29.92S
Houston Hobby  CLOUDY    70  67  90 S8        29.91S
Nashville      CLOUDY    47  35  63 VRB3      30.21R
Atlanta        MOCLDY    48  25  40 SE6       30.21R

$$

GAZ044-118-TXZ119-213-NCZ071-DCZ001-MDZ014-506-PAZ021-071-NJZ106-
NYZ176-178-MAZ106-OHZ011-021-055-MIZ076-KYZ091-ILZ014-INZ047-
MNZ060-ONZ431-271000-
...Gateway Observations for Savannah International...

CITY           SKY/WX    TMP DP  RH WIND       PRES   REMARKS
Savannah Arpt  CLEAR     45  41  86 CALM      30.29S
Atlanta        MOCLDY    48  25  40 SE6       30.21R
Charlotte      PTCLDY    41  20  43 SE5       30.29R
Dallas DFW     CLOUDY    60  57  89 SE6       29.90F
Houston Bush   CLOUDY    69  66  90 SE3       29.92S
Wash National  CLEAR     39  28  64 CALM      30.36R
Wash Dulles    PTCLDY    25  19  78 SE3       30.34R
Baltimore      PTCLDY    29  23  78 CALM      30.35R
Philadelphia   CLEAR     33  23  66 CALM      30.37R
Newark         CLEAR     31  19  61 SW6       30.34R WCI  25
Laguardia      CLEAR     38  17  42 S10       30.32R WCI  31
J F K          CLEAR     33  24  69 SW10      30.35R WCI  25
Boston         PTCLDY    30  19  63 SW9       30.26S WCI  22
Pittsburg      CLOUDY    33  15  47 CALM      30.22S
Akron          PTCLDY    34  17  50 S7        30.19  WCI  28
Cleveland      MOCLDY    37  18  46 S9        30.19S WCI  30
Cincinnati     CLOUDY    44  22  41 S7        30.19S
Columbus       CLOUDY    39  22  51 S7        30.21R WCI  34
Detroit        PTCLDY    33  23  66 S10       30.13R WCI  25
Chicago O`Hare PTCLDY    33  24  69 W3        30.09R
Minneapolis    CLOUDY    26  21  81 SE6       29.95F WCI  19
Indianapolis   CLOUDY    40  33  76 W3        30.16F
Toronto Canada PTCLDY    37  21  52 SW15      30.05R WCI  28

$$




USA.gov is the U.S. government's official web portal to all federal, state and local government web resources and services.